INTELSAT 33E (IS-33E)

Last updated on Aug. 11, 2020, 5:36 a.m. UTC

1 41748U 16053B   20223.29355013  .00000048  00000-0  00000-0 0  9998
2 41748   0.0118  67.4828 0001957  81.4403 335.9570  1.00272112 14826
UTC
Height (km)
Latitude
Longitude
Inclination
Orbital Period
UTC large
Height (km)
Speed (km/s)
/
Latitude / Longitude
Inclination (degrees)
Orbital Period (minutes)
Azimuth
Elevation
Range (km)
Doppler Factor
iOS Compass Heading
iOS Angle

Next 30 passes for location: Hong Kong

Rise time Rise Azimuth (degrees) Set time Set Azimuth (degrees) Duration Max altitude (degrees)

No matching passes for this satellites